AirNav   Air Wisconsin pilot careers
 
 544 users online  

68IS Casa de Aero Park Airport
Hampshire, Illinois, USA

GOING TO HAMPSHIRE?


FAA INFORMATION EFFECTIVE 16 AUGUST 2018

Location

FAA Identifier: 68IS
Lat/Long: 42-08-54.9590N / 088-33-43.0095W
42-08.915983N / 088-33.716825W
42.1485997 / -88.5619471
(estimated)
Elevation: 860 ft. / 262 m (estimated)
Variation: 02W (2005)
From city: 3 miles NW of HAMPSHIRE, IL
Time zone: UTC -5 (UTC -6 during Standard Time)
Zip code: 60140

Airport Operations

Airport use: Private use. Permission required prior to landing
Activation date: 05/1971
Control tower: no
ARTCC: CHICAGO CENTER
FSS: KANKAKEE FLIGHT SERVICE STATION
NOTAMs facility: FDC (NOTAM-D service not available)
Attendance: MON-FRI 24 HOURS/DAY
Wind indicator: yes
Segmented circle: yes
Lights: 24 HRS

Airport Communications

WX AWOS-3 at DKB (14 nm SW): 119.075 (815-748-2350)

Nearby radio navigation aids

VOR radial/distance  VOR name  Freq  Var
DPAr327/18.1DUPAGE VOR/DME108.4002E
OBKr263/27.5NORTHBROOK VOR/DME113.0002W
RFDr098/28.7ROCKFORD VOR/DME110.8001E
ORDr286/30.8CHICAGO O'HARE VOR/DME113.9002E
JVLr133/34.4JANESVILLE VOR/DME114.3003E
BUUr201/34.4BURBUN VOR/DME114.5001W
JOTr341/37.7JOLIET VOR/DME112.3002E

 
NDB name  Hdg/Dist  Freq  Var  ID
LAKE LAWN180/33.040402WLVV .-.. ...- ...-

Airport Services

Airframe service: NONE
Powerplant service: NONE

Runway Information

Runway 9/27

Dimensions: 2998 x 50 ft. / 914 x 15 m
Surface: asphalt, in good condition
Runway edge lights: low intensity
RUNWAY 9  RUNWAY 27
Latitude: 42-08.915933N42-08.916033N
Longitude: 088-34.048533W088-33.385117W
Elevation: 846.6 ft.855.5 ft.
Traffic pattern: rightleft
Visual slope indicator: 2-box VASI on left (3.00 degrees glide path)
Touchdown point: yes, no lightsyes, no lights

Airport Ownership and Management from official FAA records

Ownership: Privately-owned
Owner: CASA DE AERO PARK CORP.
P.O. BOX 42
HAMPSHIRE, IL 60140
Phone (847) 217-9803
Manager: BILL WASCHER
CASA DE AERO PARK CORP., PO BOX 42
HAMPSHIRE, IL 60140
Phone (847) 217-9803

Airport Operational Statistics

Aircraft based on the field: 77
Single engine airplanes: 65
Multi engine airplanes: 7
Gliders airplanes: 1
Ultralights: 4
    

Additional Remarks

FOR CD CTC CHICAGO APCH AT 847-289-0926.

Instrument Procedures

There are no published instrument procedures at 68IS.

Some nearby airports with instrument procedures:

3CK - Lake in the Hills Airport (11 nm E)
KDKB - De Kalb Taylor Municipal Airport (14 nm SW)
C77 - Poplar Grove Airport (16 nm NW)
10C - Galt Field Airport (17 nm NE)
KDPA - DuPage Airport (20 nm SE)
 
Loc | Ops | Rwys | IFR | FBO | Links
Com | Nav | Svcs | Stats | Notes


 
Area around 68IS (Casa de Aero Park Airport)
 
Road maps at: MapQuest Bing Google
 
Aerial photo
WARNING: Photo may not be current or correct
Aerial photo of 68IS (Casa de Aero Park Airport)
Photo by Kyle J Grimmonpre
Photo taken 26-Jun-2012
from 2500' MSL, looking east.

Do you have a better or more recent aerial photo of Casa de Aero Park Airport that you would like to share? If so, please send us your photo.

 
Sectional chart

 
Airport distance calculator
Flying to Casa de Aero Park Airport? Find the distance to fly.

From to 68IS

Sunrise and sunset
Times for 17-Aug-2018
 Local
(UTC-5)
 Zulu
(UTC)
Morning civil twilight05:3510:35
Sunrise06:0511:05
Sunset19:5200:52
Evening civil twilight20:2201:22

Current date and time
Zulu (UTC)  17-Aug-2018 05:54:16
Local (UTC-5)  17-Aug-2018 00:54:16
 
METAR
KDKB 
14nm SW 
170535Z AUTO 08003KT 10SM SCT100 19/19 A2996 RMK AO2 LTG DSNT NE P0003 T01860186
KDPA 
20nm SE 
170534Z 14007KT 5SM -TSRA BR FEW048 BKN090 BKN110 20/19 A2993 RMK AO2 LTG DSNT E-S TSB28 P0030 T02000194
K06C 
23nm SE 
170535Z AUTO 14005KT 7SM SCT045 SCT070 OVC100 19/19 A2995 RMK AO2 P0010 T01910185
KARR 
23nm S 
170528Z AUTO 06003KT 10SM -RA FEW065 BKN110 19/19 A2994 RMK AO2 LTG DSNT ALQDS TSE25 P0001 T01940194
KRFD 
24nm W 
170517Z 15005KT 10SM -RA FEW070 BKN095 BKN110 19/18 A2995 RMK AO2 TSE11 OCNL LTGIC DSNT E-SE CB DSNT E-SE MOV NE P0001 T01890183
KRPJ 
28nm SW 
170535Z AUTO 00000KT 10SM CLR 18/18 A2995 RMK AO2 T01820182
TAF
KDPA 
20nm SE 
170347Z 1704/1724 VRB03KT 6SM -SHRA VCTS SCT025 BKN050CB TEMPO 1704/1705 28015G25KT 2SM TSRA BKN015 OVC025CB FM170700 VRB03KT 3SM BR VCSH SCT010 BKN020 FM171400 02005KT P6SM SCT020 BKN035 FM171800 05009KT P6SM BKN040
KRFD 
24nm W 
170300Z 1703/1724 VRB03KT 6SM -SHRA VCTS SCT015 OVC035CB TEMPO 1703/1704 2SM TSRA SCT009 BKN015 OVC025CB FM170500 VRB03KT 6SM BR VCSH SCT015 BKN035 FM170900 VRB03KT 3SM BR SCT008 BKN015 FM171500 02005KT P6SM SCT015 BKN030 FM171800 03008KT P6SM BKN040
NOTAMs
Click for the latest NOTAMs
NOTAMs are issued by the DoD/FAA and will open in a separate window not controlled by AirNav.

 

 
 

Would you like to see your business listed on this page?

 If your business provides an interesting product or service to pilots, flight crews, aircraft, or users of the Casa de Aero Park Airport, you should consider listing it here.  To start the listing process, click on the button below
 
Add a business
 

Other Pages about Casa de Aero Park Airport

Update a link
 
Copyright © AirNav, LLC. All rights reserved. Privacy Policy  Contact